Time,TemperatureF,DewpointF,PressureIn,WindDirection,WindDirectionDegrees,WindSpeedMPH,WindSpeedGustMPH,Humidity,HourlyPrecipIn,Conditions,Clouds,dailyrainin,SoftwareType,DateUTC
2013-04-29 00:00:00,52.5,7.6,29.56,ESE,108,5.4,5.4,16,-99.99,,---,-99.99,VWS V14.01,2013-04-29 04:00:00,
2013-04-29 00:01:00,52.7,7.8,29.56,SE,129,4.0,6.3,16,-99.99,,---,-99.99,VWS V14.01,2013-04-29 04:01:00,
2013-04-29 00:02:00,52.7,7.8,29.56,SE,124,4.0,7.6,16,-99.99,,---,-99.99,VWS V14.01,2013-04-29 04:02:00,
2013-04-29 00:03:00,52.7,7.8,29.56,ESE,119,4.0,5.4,16,-99.99,,---,-99.99,VWS V14.01,2013-04-29 04:03:00,
2013-04-29 00:08:00,52.9,7.9,29.56,ESE,107,4.0,4.0,16,-99.99,,---,-99.99,VWS V14.01,2013-04-29 04:08:00,
2013-04-29 00:13:00,53.1,8.1,29.53,SE,129,5.4,5.4,16,-99.99,,---,-99.99,VWS V14.01,2013-04-29 04:13:00,
2013-04-29 00:19:00,53.1,3.5,29.53,SSE,160,6.3,6.3,13,-99.99,,---,-99.99,VWS V14.01,2013-04-29 04:19:00,
2013-04-29 00:24:00,53.1,3.5,29.53,SE,141,6.3,6.3,13,-99.99,,---,-99.99,VWS V14.01,2013-04-29 04:24:00,
2013-04-29 00:29:00,52.9,3.4,29.56,SE,145,6.3,6.3,13,-99.99,,---,-99.99,VWS V14.01,2013-04-29 04:29:00,
2013-04-29 00:34:00,52.9,3.4,29.56,SE,140,5.8,5.8,13,-99.99,,---,-99.99,VWS V14.01,2013-04-29 04:34:00,
2013-04-29 00:39:00,53.1,3.5,29.56,SE,136,3.1,5.4,13,-99.99,,---,-99.99,VWS V14.01,2013-04-29 04:39:00,
2013-04-29 00:44:00,53.1,3.5,29.56,SE,136,3.1,3.1,13,-99.99,,---,-99.99,VWS V14.01,2013-04-29 04:44:00,
2013-04-29 00:49:00,53.1,3.5,29.56,SE,136,3.1,3.1,13,-99.99,,---,-99.99,VWS V14.01,2013-04-29 04:49:00,
2013-04-29 00:54:00,53.1,3.5,29.56,SE,136,3.1,3.1,13,-99.99,,---,-99.99,VWS V14.01,2013-04-29 04:54:00,
2013-04-29 00:59:00,53.1,3.5,29.56,SE,136,3.1,3.1,13,-99.99,,---,-99.99,VWS V14.01,2013-04-29 04:59:00,
2013-04-29 01:04:00,53.2,3.7,29.56,SE,136,3.1,3.1,13,-99.99,,---,-99.99,VWS V14.01,2013-04-29 05:04:00,
2013-04-29 01:12:00,53.2,3.7,29.56,SE,136,3.1,3.1,13,-99.99,,---,-99.99,VWS V14.01,2013-04-29 05:12:00,
2013-04-29 01:17:00,53.1,3.5,29.56,SE,141,4.9,4.9,13,-99.99,,---,-99.99,VWS V14.01,2013-04-29 05:17:00,
2013-04-29 01:22:00,53.1,3.5,29.56,SE,131,3.1,4.0,13,-99.99,,---,-99.99,VWS V14.01,2013-04-29 05:22:00,
2013-04-29 01:27:00,52.7,3.2,29.56,SE,135,4.9,4.9,13,-99.99,,---,-99.99,VWS V14.01,2013-04-29 05:27:00,
2013-04-29 01:41:00,53.1,3.5,29.56,SE,143,6.3,6.3,13,-99.99,,---,-99.99,VWS V14.01,2013-04-29 05:41:00,
2013-04-29 01:46:00,53.1,8.1,29.56,SE,143,6.3,6.3,16,-99.99,,---,-99.99,VWS V14.01,2013-04-29 05:46:00,
2013-04-29 01:51:00,52.9,7.9,29.56,ESE,119,3.1,3.1,16,-99.99,,---,-99.99,VWS V14.01,2013-04-29 05:51:00,
2013-04-29 01:56:00,53.2,8.2,29.56,SE,145,0.0,0.0,16,-99.99,,---,-99.99,VWS V14.01,2013-04-29 05:56:00,
2013-04-29 02:01:00,53.8,7.2,29.56,SE,132,0.0,0.0,15,-99.99,,---,-99.99,VWS V14.01,2013-04-29 06:01:00,
2013-04-29 02:06:00,53.8,7.2,29.56,SE,127,0.0,0.0,15,-99.99,,---,-99.99,VWS V14.01,2013-04-29 06:06:00,
2013-04-29 02:11:00,53.6,7.1,29.56,SE,127,0.0,0.0,15,-99.99,,---,-99.99,VWS V14.01,2013-04-29 06:11:00,
2013-04-29 02:16:00,53.6,7.1,29.53,SE,135,0.0,0.0,15,-99.99,,---,-99.99,VWS V14.01,2013-04-29 06:16:00,
2013-04-29 02:21:00,53.2,8.2,29.53,East,91,0.0,0.0,16,-99.99,,---,-99.99,VWS V14.01,2013-04-29 06:21:00,
2013-04-29 02:26:00,53.2,8.2,29.53,SE,137,0.0,0.0,16,-99.99,,---,-99.99,VWS V14.01,2013-04-29 06:26:00,
2013-04-29 02:32:00,53.2,8.2,29.53,ESE,103,0.0,0.0,16,-99.99,,---,-99.99,VWS V14.01,2013-04-29 06:32:00,
2013-04-29 02:37:00,53.2,10.9,29.53,East,80,0.0,0.0,18,-99.99,,---,-99.99,VWS V14.01,2013-04-29 06:37:00,
2013-04-29 02:42:00,53.2,14.3,29.53,ESE,117,0.0,0.0,21,-99.99,,---,-99.99,VWS V14.01,2013-04-29 06:42:00,
2013-04-29 02:47:00,53.1,14.2,29.53,SE,143,0.0,0.0,21,-99.99,,---,-99.99,VWS V14.01,2013-04-29 06:47:00,
2013-04-29 02:52:00,53.1,16.3,29.53,SE,146,0.0,0.0,23,-99.99,,---,-99.99,VWS V14.01,2013-04-29 06:52:00,
2013-04-29 02:57:00,52.5,15.8,29.53,SE,124,0.0,0.0,23,-99.99,,---,-99.99,VWS V14.01,2013-04-29 06:57:00,
2013-04-29 03:02:00,52.3,18.5,29.53,ESE,105,0.0,0.0,26,-99.99,,---,-99.99,VWS V14.01,2013-04-29 07:02:00,
2013-04-29 03:07:00,52.3,21.8,29.53,ESE,106,0.0,0.0,30,-99.99,,---,-99.99,VWS V14.01,2013-04-29 07:07:00,
2013-04-29 03:12:00,53.1,26.8,29.53,SE,145,0.0,0.0,36,-99.99,,---,-99.99,VWS V14.01,2013-04-29 07:12:00,
2013-04-29 04:05:00,52.3,30.0,29.53,SSE,149,0.0,0.0,42,-99.99,,---,-99.99,VWS V14.01,2013-04-29 08:05:00,
2013-04-29 04:10:00,52.2,32.0,29.53,East,84,0.0,0.0,46,-99.99,,---,-99.99,VWS V14.01,2013-04-29 08:10:00,
2013-04-29 04:15:00,52.2,33.1,29.53,SE,145,0.0,0.0,48,-99.99,,---,-99.99,VWS V14.01,2013-04-29 08:15:00,
2013-04-29 04:20:00,52.2,34.1,29.53,South,180,0.0,0.0,50,-99.99,,---,-99.99,VWS V14.01,2013-04-29 08:20:00,
2013-04-29 04:25:00,52.7,37.0,29.53,East,91,0.0,0.0,55,-99.99,,---,-99.99,VWS V14.01,2013-04-29 08:25:00,
2013-04-29 04:30:00,52.9,39.4,29.53,ESE,104,0.0,0.0,60,-99.99,,---,-99.99,VWS V14.01,2013-04-29 08:30:00,
2013-04-29 04:41:00,53.4,44.3,29.53,SE,135,0.0,0.0,71,-99.99,,---,-99.99,VWS V14.01,2013-04-29 08:41:00,
2013-04-29 04:46:00,53.2,44.8,29.53,SE,125,0.0,0.0,73,-99.99,,---,-99.99,VWS V14.01,2013-04-29 08:46:00,
2013-04-29 04:51:00,53.4,45.3,29.53,ESE,102,0.0,0.0,74,-99.99,,---,-99.99,VWS V14.01,2013-04-29 08:51:00,
2013-04-29 04:56:00,53.6,46.2,29.53,SE,131,0.0,0.0,76,-99.99,,---,-99.99,VWS V14.01,2013-04-29 08:56:00,
2013-04-29 05:01:00,53.4,46.1,29.53,SE,137,0.0,0.0,76,-99.99,,---,-99.99,VWS V14.01,2013-04-29 09:01:00,
2013-04-29 05:06:00,53.2,45.2,29.53,ESE,104,0.0,0.0,74,-99.99,,---,-99.99,VWS V14.01,2013-04-29 09:06:00,
2013-04-29 05:11:00,53.2,45.5,29.53,SSE,162,0.0,0.0,75,-99.99,,---,-99.99,VWS V14.01,2013-04-29 09:11:00,
2013-04-29 05:16:00,53.2,45.9,29.53,ESE,110,0.0,0.0,76,-99.99,,---,-99.99,VWS V14.01,2013-04-29 09:16:00,
2013-04-29 05:21:00,53.6,47.3,29.53,SE,137,0.0,0.0,79,-99.99,,---,-99.99,VWS V14.01,2013-04-29 09:21:00,
2013-04-29 05:26:00,53.8,48.1,29.53,SSE,152,0.0,0.0,81,-99.99,,---,-99.99,VWS V14.01,2013-04-29 09:26:00,
2013-04-29 05:31:00,53.6,47.6,29.53,ENE,78,0.0,0.0,80,-99.99,,---,-99.99,VWS V14.01,2013-04-29 09:31:00,
2013-04-29 05:36:00,53.4,47.4,29.53,ESE,117,0.0,0.0,80,-99.99,,---,-99.99,VWS V14.01,2013-04-29 09:36:00,
2013-04-29 05:41:00,53.2,46.9,29.53,ESE,102,0.0,0.0,79,-99.99,,---,-99.99,VWS V14.01,2013-04-29 09:41:00,
2013-04-29 05:46:00,53.1,46.7,29.53,ESE,114,0.0,0.0,79,-99.99,,---,-99.99,VWS V14.01,2013-04-29 09:46:00,
2013-04-29 05:51:00,52.9,45.9,29.53,NE,51,0.0,0.0,77,-99.99,,---,-99.99,VWS V14.01,2013-04-29 09:51:00,
2013-04-29 05:57:00,52.9,45.9,29.53,East,89,0.0,0.0,77,-99.99,,---,-99.99,VWS V14.01,2013-04-29 09:57:00,
2013-04-29 06:02:00,52.9,46.2,29.53,East,88,0.0,0.0,78,-99.99,,---,-99.99,VWS V14.01,2013-04-29 10:02:00,
2013-04-29 06:07:00,53.1,47.1,29.53,ESE,109,0.0,0.0,80,-99.99,,---,-99.99,VWS V14.01,2013-04-29 10:07:00,
2013-04-29 06:12:00,53.2,47.6,29.53,ESE,104,0.0,0.0,81,-99.99,,---,-99.99,VWS V14.01,2013-04-29 10:12:00,
2013-04-29 06:17:00,53.2,47.9,29.53,ESE,111,0.0,0.0,82,-99.99,,---,-99.99,VWS V14.01,2013-04-29 10:17:00,
2013-04-29 06:22:00,53.2,48.2,29.53,ESE,111,0.0,0.0,83,-99.99,,---,-99.99,VWS V14.01,2013-04-29 10:22:00,
2013-04-29 06:27:00,53.4,48.4,29.53,ESE,111,0.0,0.0,83,-99.99,,---,-99.99,VWS V14.01,2013-04-29 10:27:00,
2013-04-29 06:32:00,53.4,48.7,29.53,ESE,108,0.0,0.0,84,-99.99,,---,-99.99,VWS V14.01,2013-04-29 10:32:00,
2013-04-29 06:37:00,53.6,48.9,29.53,ESE,102,0.0,0.0,84,-99.99,,---,-99.99,VWS V14.01,2013-04-29 10:37:00,
2013-04-29 06:42:00,54.0,49.2,29.53,East,82,0.0,0.0,84,-99.99,,---,-99.99,VWS V14.01,2013-04-29 10:42:00,
2013-04-29 06:47:00,54.0,49.6,29.53,ESE,103,0.0,0.0,85,-99.99,,---,-99.99,VWS V14.01,2013-04-29 10:47:00,
2013-04-29 06:52:00,53.8,49.4,29.53,ESE,103,0.0,0.0,85,-99.99,,---,-99.99,VWS V14.01,2013-04-29 10:52:00,
2013-04-29 06:57:00,54.0,49.6,29.53,ESE,121,0.0,0.0,85,-99.99,,---,-99.99,VWS V14.01,2013-04-29 10:57:00,
2013-04-29 07:02:00,54.0,49.9,29.53,East,88,0.0,0.0,86,-99.99,,---,-99.99,VWS V14.01,2013-04-29 11:02:00,
2013-04-29 07:07:00,54.0,49.9,29.53,East,95,0.0,0.0,86,-99.99,,---,-99.99,VWS V14.01,2013-04-29 11:07:00,
2013-04-29 07:12:00,54.0,50.2,29.53,ESE,112,0.0,0.0,87,-99.99,,---,-99.99,VWS V14.01,2013-04-29 11:12:00,
2013-04-29 07:17:00,54.5,50.7,29.53,ESE,119,0.0,0.0,87,-99.99,,---,-99.99,VWS V14.01,2013-04-29 11:17:00,
2013-04-29 07:23:00,54.3,50.8,29.53,East,101,0.0,0.0,88,-99.99,,---,-99.99,VWS V14.01,2013-04-29 11:23:00,
2013-04-29 07:28:00,54.3,50.8,29.53,ESE,102,0.0,0.0,88,-99.99,,---,-99.99,VWS V14.01,2013-04-29 11:28:00,
2013-04-29 07:33:00,54.5,51.0,29.50,SE,135,0.0,0.0,88,-99.99,,---,-99.99,VWS V14.01,2013-04-29 11:33:00,
2013-04-29 07:38:00,55.0,51.6,29.50,East,81,0.0,0.0,88,-99.99,,---,-99.99,VWS V14.01,2013-04-29 11:38:00,
2013-04-29 07:43:00,54.9,51.7,29.50,ESE,105,0.0,0.0,89,-99.99,,---,-99.99,VWS V14.01,2013-04-29 11:43:00,
2013-04-29 07:48:00,55.0,51.9,29.53,ESE,112,0.0,0.0,89,-99.99,,---,-99.99,VWS V14.01,2013-04-29 11:48:00,
2013-04-29 07:53:00,55.4,52.2,29.53,SSE,147,0.0,0.0,89,-99.99,,---,-99.99,VWS V14.01,2013-04-29 11:53:00,
2013-04-29 07:58:00,55.2,52.3,29.53,ESE,117,0.0,0.0,90,-99.99,,---,-99.99,VWS V14.01,2013-04-29 11:58:00,
2013-04-29 08:03:00,55.2,52.3,29.53,SE,131,0.0,0.0,90,-99.99,,---,-99.99,VWS V14.01,2013-04-29 12:03:00,
2013-04-29 08:14:00,55.6,52.7,29.53,East,88,0.0,0.0,90,-99.99,,---,-99.99,VWS V14.01,2013-04-29 12:14:00,
2013-04-29 08:19:00,55.9,53.0,29.53,SSE,152,0.0,0.0,90,-99.99,,---,-99.99,VWS V14.01,2013-04-29 12:19:00,
2013-04-29 08:24:00,56.3,53.4,29.53,SE,136,0.0,0.0,90,-99.99,,---,-99.99,VWS V14.01,2013-04-29 12:24:00,
2013-04-29 08:29:00,56.1,53.2,29.53,SSE,150,0.0,0.0,90,-99.99,,---,-99.99,VWS V14.01,2013-04-29 12:29:00,
2013-04-29 08:51:00,55.0,52.2,29.53,ESE,109,0.0,0.0,90,-99.99,,---,-99.99,VWS V14.01,2013-04-29 12:51:00,
2013-04-29 08:56:00,55.0,51.9,29.53,SE,125,0.0,0.0,89,-99.99,,---,-99.99,VWS V14.01,2013-04-29 12:56:00,
2013-04-29 09:02:00,54.9,51.7,29.53,SE,142,0.0,0.0,89,-99.99,,---,-99.99,VWS V14.01,2013-04-29 13:02:00,
2013-04-29 09:07:00,54.9,51.4,29.53,SE,127,0.0,0.0,88,-99.99,,---,-99.99,VWS V14.01,2013-04-29 13:07:00,
2013-04-29 09:12:00,55.0,51.6,29.53,SE,131,0.0,0.0,88,-99.99,,---,-99.99,VWS V14.01,2013-04-29 13:12:00,
2013-04-29 09:17:00,55.0,51.6,29.53,SSE,156,0.0,0.0,88,-99.99,,---,-99.99,VWS V14.01,2013-04-29 13:17:00,
2013-04-29 09:28:00,55.2,51.7,29.53,SSE,148,0.0,0.0,88,-99.99,,---,-99.99,VWS V14.01,2013-04-29 13:28:00,
2013-04-29 09:33:00,55.6,52.1,29.53,ESE,123,0.0,0.0,88,-99.99,,---,-99.99,VWS V14.01,2013-04-29 13:33:00,
2013-04-29 09:39:00,55.4,51.9,29.53,SSE,153,0.0,0.0,88,-99.99,,---,-99.99,VWS V14.01,2013-04-29 13:39:00,
2013-04-29 09:44:00,55.6,52.4,29.53,ESE,104,0.0,0.0,89,-99.99,,---,-99.99,VWS V14.01,2013-04-29 13:44:00,
2013-04-29 09:49:00,56.5,53.3,29.53,ENE,75,0.0,0.0,89,-99.99,,---,-99.99,VWS V14.01,2013-04-29 13:49:00,
2013-04-29 09:54:00,56.7,53.5,29.53,SSE,147,0.0,0.0,89,-99.99,,---,-99.99,VWS V14.01,2013-04-29 13:54:00,
2013-04-29 09:59:00,56.7,53.8,29.53,East,88,0.0,0.0,90,-99.99,,---,-99.99,VWS V14.01,2013-04-29 13:59:00,
2013-04-29 10:04:00,56.8,53.9,29.53,ESE,103,0.0,0.0,90,-99.99,,---,-99.99,VWS V14.01,2013-04-29 14:04:00,
2013-04-29 10:09:00,57.2,54.3,29.53,ESE,116,0.0,0.0,90,-99.99,,---,-99.99,VWS V14.01,2013-04-29 14:09:00,
2013-04-29 10:15:00,57.4,54.5,29.53,SE,124,0.0,0.0,90,-99.99,,---,-99.99,VWS V14.01,2013-04-29 14:15:00,
2013-04-29 10:20:00,57.6,54.7,29.53,ESE,111,0.0,0.0,90,-99.99,,---,-99.99,VWS V14.01,2013-04-29 14:20:00,
2013-04-29 10:25:00,57.4,54.5,29.53,SE,144,0.0,0.0,90,-99.99,,---,-99.99,VWS V14.01,2013-04-29 14:25:00,
2013-04-29 10:30:00,57.2,54.3,29.53,ESE,108,0.0,0.0,90,-99.99,,---,-99.99,VWS V14.01,2013-04-29 14:30:00,
2013-04-29 10:35:00,57.2,54.3,29.53,SE,129,0.0,0.0,90,-99.99,,---,-99.99,VWS V14.01,2013-04-29 14:35:00,
2013-04-29 10:40:00,57.2,54.3,29.53,ESE,114,0.0,0.0,90,-99.99,,---,-99.99,VWS V14.01,2013-04-29 14:40:00,
2013-04-29 10:46:00,57.4,54.2,29.53,East,100,0.0,0.0,89,-99.99,,---,-99.99,VWS V14.01,2013-04-29 14:46:00,
2013-04-29 10:51:00,57.2,54.0,29.53,SE,135,0.0,0.0,89,-99.99,,---,-99.99,VWS V14.01,2013-04-29 14:51:00,
2013-04-29 10:56:00,57.2,54.0,29.53,ESE,122,0.0,0.0,89,-99.99,,---,-99.99,VWS V14.01,2013-04-29 14:56:00,
2013-04-29 11:01:00,57.2,54.0,29.53,East,97,0.0,0.0,89,-99.99,,---,-99.99,VWS V14.01,2013-04-29 15:01:00,
2013-04-29 11:06:00,57.2,54.0,29.53,ESE,122,0.0,0.0,89,-99.99,,---,-99.99,VWS V14.01,2013-04-29 15:06:00,
2013-04-29 11:11:00,57.2,54.0,29.53,ENE,76,0.0,0.0,89,-99.99,,---,-99.99,VWS V14.01,2013-04-29 15:11:00,
2013-04-29 11:17:00,57.2,54.0,29.53,ESE,117,0.0,0.0,89,-99.99,,---,-99.99,VWS V14.01,2013-04-29 15:17:00,
2013-04-29 11:22:00,56.8,53.6,29.53,ESE,118,0.0,0.0,89,-99.99,,---,-99.99,VWS V14.01,2013-04-29 15:22:00,
2013-04-29 11:27:00,56.8,53.3,29.53,ESE,113,0.0,0.0,88,-99.99,,---,-99.99,VWS V14.01,2013-04-29 15:27:00,
2013-04-29 11:32:00,56.7,53.2,29.53,East,90,0.0,0.0,88,-99.99,,---,-99.99,VWS V14.01,2013-04-29 15:32:00,
2013-04-29 11:37:00,56.7,52.8,29.53,ESE,103,0.0,0.0,87,-99.99,,---,-99.99,VWS V14.01,2013-04-29 15:37:00,
2013-04-29 11:43:00,56.8,53.0,29.53,ESE,102,0.0,0.0,87,-99.99,,---,-99.99,VWS V14.01,2013-04-29 15:43:00,
2013-04-29 11:48:00,57.2,53.1,29.53,East,85,0.0,0.0,86,-99.99,,---,-99.99,VWS V14.01,2013-04-29 15:48:00,
2013-04-29 11:53:00,57.2,53.1,29.53,ESE,113,0.0,0.0,86,-99.99,,---,-99.99,VWS V14.01,2013-04-29 15:53:00,
2013-04-29 11:58:00,57.2,53.1,29.53,ESE,121,0.0,0.0,86,-99.99,,---,-99.99,VWS V14.01,2013-04-29 15:58:00,
2013-04-29 12:03:00,57.4,53.2,29.53,ESE,106,0.0,0.0,86,-99.99,,---,-99.99,VWS V14.01,2013-04-29 16:03:00,
2013-04-29 12:08:00,57.6,53.4,29.53,ESE,108,0.0,0.0,86,-99.99,,---,-99.99,VWS V14.01,2013-04-29 16:08:00,
2013-04-29 12:13:00,57.6,53.4,29.53,East,85,0.0,0.0,86,-99.99,,---,-99.99,VWS V14.01,2013-04-29 16:13:00,
2013-04-29 12:18:00,57.6,53.4,29.53,East,101,0.0,0.0,86,-99.99,,---,-99.99,VWS V14.01,2013-04-29 16:18:00,
2013-04-29 12:24:00,57.7,53.6,29.53,East,89,0.0,0.0,86,-99.99,,---,-99.99,VWS V14.01,2013-04-29 16:24:00,
2013-04-29 12:29:00,57.9,53.8,29.53,ESE,105,0.0,0.0,86,-99.99,,---,-99.99,VWS V14.01,2013-04-29 16:29:00,
2013-04-29 12:34:00,58.6,54.8,29.53,ESE,119,0.0,0.0,87,-99.99,,---,-99.99,VWS V14.01,2013-04-29 16:34:00,
2013-04-29 12:40:00,59.2,55.3,29.53,SE,144,0.0,0.0,87,-99.99,,---,-99.99,VWS V14.01,2013-04-29 16:40:00,
2013-04-29 12:45:00,59.2,55.3,29.50,SSE,147,0.0,0.0,87,-99.99,,---,-99.99,VWS V14.01,2013-04-29 16:45:00,
2013-04-29 12:50:00,58.5,54.6,29.50,ESE,109,0.0,0.0,87,-99.99,,---,-99.99,VWS V14.01,2013-04-29 16:50:00,
2013-04-29 12:55:00,58.6,54.8,29.50,East,93,0.0,0.0,87,-99.99,,---,-99.99,VWS V14.01,2013-04-29 16:55:00,
2013-04-29 13:00:00,59.2,55.3,29.50,East,94,0.0,0.0,87,-99.99,,---,-99.99,VWS V14.01,2013-04-29 17:00:00,
2013-04-29 13:05:00,59.4,55.5,29.50,ESE,107,0.0,0.0,87,-99.99,,---,-99.99,VWS V14.01,2013-04-29 17:05:00,
2013-04-29 13:10:00,59.5,55.7,29.50,SE,132,0.0,0.0,87,-99.99,,---,-99.99,VWS V14.01,2013-04-29 17:10:00,
2013-04-29 13:16:00,59.9,56.0,29.53,ESE,116,0.0,0.0,87,-99.99,,---,-99.99,VWS V14.01,2013-04-29 17:16:00,
2013-04-29 13:21:00,59.7,55.8,29.53,SE,126,0.0,0.0,87,-99.99,,---,-99.99,VWS V14.01,2013-04-29 17:21:00,
2013-04-29 13:26:00,59.4,55.5,29.53,ESE,107,0.0,0.0,87,-99.99,,---,-99.99,VWS V14.01,2013-04-29 17:26:00,
2013-04-29 13:31:00,59.2,55.0,29.53,ESE,116,0.0,0.0,86,-99.99,,---,-99.99,VWS V14.01,2013-04-29 17:31:00,
2013-04-29 13:36:00,58.8,54.7,29.53,SE,138,0.0,0.0,86,-99.99,,---,-99.99,VWS V14.01,2013-04-29 17:36:00,
2013-04-29 13:41:00,58.6,54.5,29.53,SE,128,0.0,0.0,86,-99.99,,---,-99.99,VWS V14.01,2013-04-29 17:41:00,
2013-04-29 13:47:00,58.8,55.0,29.50,South,175,0.0,0.0,87,-99.99,,---,-99.99,VWS V14.01,2013-04-29 17:47:00,
2013-04-29 13:52:00,59.0,54.8,29.50,SE,137,0.0,0.0,86,-99.99,,---,-99.99,VWS V14.01,2013-04-29 17:52:00,
2013-04-29 13:57:00,59.0,54.8,29.50,SSE,164,0.0,0.0,86,-99.99,,---,-99.99,VWS V14.01,2013-04-29 17:57:00,
2013-04-29 14:02:00,59.0,54.8,29.50,SSW,204,0.0,0.0,86,-99.99,,---,-99.99,VWS V14.01,2013-04-29 18:02:00,
2013-04-29 14:07:00,59.2,55.0,29.50,SSE,150,0.0,0.0,86,-99.99,,---,-99.99,VWS V14.01,2013-04-29 18:07:00,
2013-04-29 14:12:00,59.0,54.5,29.50,SSE,158,0.0,0.0,85,-99.99,,---,-99.99,VWS V14.01,2013-04-29 18:12:00,
2013-04-29 14:17:00,59.2,54.4,29.50,SSE,149,0.0,0.0,84,-99.99,,---,-99.99,VWS V14.01,2013-04-29 18:17:00,
2013-04-29 14:22:00,59.4,54.2,29.50,ESE,103,0.0,0.0,83,-99.99,,---,-99.99,VWS V14.01,2013-04-29 18:22:00,
2013-04-29 14:28:00,59.2,53.7,29.50,SSW,196,0.0,0.0,82,-99.99,,---,-99.99,VWS V14.01,2013-04-29 18:28:00,
2013-04-29 14:33:00,59.4,53.5,29.50,ESE,112,0.0,0.0,81,-99.99,,---,-99.99,VWS V14.01,2013-04-29 18:33:00,
2013-04-29 14:38:00,59.4,53.5,29.50,SE,130,0.0,0.0,81,-99.99,,---,-99.99,VWS V14.01,2013-04-29 18:38:00,
2013-04-29 14:43:00,59.5,53.7,29.50,SSE,161,0.0,0.0,81,-99.99,,---,-99.99,VWS V14.01,2013-04-29 18:43:00,
2013-04-29 14:48:00,59.4,53.2,29.50,ESE,107,0.0,0.0,80,-99.99,,---,-99.99,VWS V14.01,2013-04-29 18:48:00,
2013-04-29 14:53:00,59.4,53.2,29.50,South,170,0.0,0.0,80,-99.99,,---,-99.99,VWS V14.01,2013-04-29 18:53:00,
2013-04-29 14:58:00,59.4,53.2,29.50,West,264,0.0,0.0,80,-99.99,,---,-99.99,VWS V14.01,2013-04-29 18:58:00,
2013-04-29 15:05:00,59.4,53.2,29.50,SE,129,0.0,0.0,80,-99.99,,---,-99.99,VWS V14.01,2013-04-29 19:05:00,
2013-04-29 15:10:00,59.4,53.9,29.50,SSE,150,0.0,0.0,82,-99.99,,---,-99.99,VWS V14.01,2013-04-29 19:10:00,
2013-04-29 15:15:00,59.7,54.6,29.50,SE,127,0.0,0.0,83,-99.99,,---,-99.99,VWS V14.01,2013-04-29 19:15:00,
2013-04-29 15:20:00,59.5,54.7,29.50,South,172,0.0,0.0,84,-99.99,,---,-99.99,VWS V14.01,2013-04-29 19:20:00,
2013-04-29 15:26:00,59.0,53.8,29.50,SE,135,0.0,0.0,83,-99.99,,---,-99.99,VWS V14.01,2013-04-29 19:26:00,
2013-04-29 15:31:00,59.0,54.2,29.50,SSE,164,0.0,0.0,84,-99.99,,---,-99.99,VWS V14.01,2013-04-29 19:31:00,
2013-04-29 15:36:00,58.8,54.0,29.50,SE,138,0.0,0.0,84,-99.99,,---,-99.99,VWS V14.01,2013-04-29 19:36:00,
2013-04-29 15:41:00,59.0,53.8,29.50,South,177,0.0,0.0,83,-99.99,,---,-99.99,VWS V14.01,2013-04-29 19:41:00,
2013-04-29 15:46:00,59.0,53.5,29.50,SSW,202,0.0,0.0,82,-99.99,,---,-99.99,VWS V14.01,2013-04-29 19:46:00,
2013-04-29 15:51:00,58.8,52.7,29.50,SSE,152,0.0,0.0,80,-99.99,,---,-99.99,VWS V14.01,2013-04-29 19:51:00,
2013-04-29 15:57:00,58.8,52.7,29.50,SE,145,0.0,0.0,80,-99.99,,---,-99.99,VWS V14.01,2013-04-29 19:57:00,
2013-04-29 16:02:00,59.0,52.8,29.50,SSE,153,0.0,0.0,80,-99.99,,---,-99.99,VWS V14.01,2013-04-29 20:02:00,
2013-04-29 16:07:00,59.0,53.2,29.50,SSE,166,0.0,0.0,81,-99.99,,---,-99.99,VWS V14.01,2013-04-29 20:07:00,
2013-04-29 16:12:00,59.2,53.7,29.50,SE,139,0.0,0.0,82,-99.99,,---,-99.99,VWS V14.01,2013-04-29 20:12:00,
2013-04-29 16:17:00,59.2,53.7,29.47,SE,141,0.0,0.0,82,-99.99,,---,-99.99,VWS V14.01,2013-04-29 20:17:00,
2013-04-29 16:24:00,59.4,54.2,29.47,SE,138,0.0,0.0,83,-99.99,,---,-99.99,VWS V14.01,2013-04-29 20:24:00,
2013-04-29 16:29:00,59.9,55.1,29.50,ESE,115,0.0,0.0,84,-99.99,,---,-99.99,VWS V14.01,2013-04-29 20:29:00,
2013-04-29 16:35:00,59.2,54.4,29.50,ESE,114,0.0,0.0,84,-99.99,,---,-99.99,VWS V14.01,2013-04-29 20:35:00,
2013-04-29 16:40:00,59.2,54.4,29.50,SE,134,0.0,0.0,84,-99.99,,---,-99.99,VWS V14.01,2013-04-29 20:40:00,
2013-04-29 16:45:00,59.0,54.2,29.50,SSE,153,0.0,0.0,84,-99.99,,---,-99.99,VWS V14.01,2013-04-29 20:45:00,
2013-04-29 16:50:00,59.5,55.0,29.50,WSW,248,0.0,0.0,85,-99.99,,---,-99.99,VWS V14.01,2013-04-29 20:50:00,
2013-04-29 16:55:00,59.4,55.2,29.50,SE,137,0.0,0.0,86,-99.99,,---,-99.99,VWS V14.01,2013-04-29 20:55:00,
2013-04-29 17:00:00,58.5,54.0,29.50,SE,142,0.0,0.0,85,-99.99,,---,-99.99,VWS V14.01,2013-04-29 21:00:00,
2013-04-29 17:06:00,58.6,54.5,29.50,SE,140,4.0,8.7,86,-99.99,,---,-99.99,VWS V14.01,2013-04-29 21:06:00,
2013-04-29 17:11:00,58.5,54.3,29.50,WSW,241,4.0,8.1,86,-99.99,,---,-99.99,VWS V14.01,2013-04-29 21:11:00,
2013-04-29 17:16:00,58.5,54.0,29.50,ESE,117,8.7,8.7,85,-99.99,,---,-99.99,VWS V14.01,2013-04-29 21:16:00,
2013-04-29 17:21:00,58.3,53.5,29.50,SSE,168,4.0,6.3,84,-99.99,,---,-99.99,VWS V14.01,2013-04-29 21:21:00,
2013-04-29 17:26:00,58.1,53.6,29.50,SE,142,8.3,8.3,85,-99.99,,---,-99.99,VWS V14.01,2013-04-29 21:26:00,
2013-04-29 17:31:00,58.3,53.8,29.50,SSE,150,5.8,5.8,85,-99.99,,---,-99.99,VWS V14.01,2013-04-29 21:31:00,
2013-04-29 17:36:00,58.8,54.7,29.50,SE,130,7.2,8.7,86,-99.99,,---,-99.99,VWS V14.01,2013-04-29 21:36:00,
2013-04-29 17:41:00,58.6,54.2,29.50,SE,136,8.3,8.3,85,-99.99,,---,-99.99,VWS V14.01,2013-04-29 21:41:00,
2013-04-29 17:47:00,58.8,54.0,29.50,SE,131,6.3,8.7,84,-99.99,,---,-99.99,VWS V14.01,2013-04-29 21:47:00,
2013-04-29 17:52:00,58.8,54.0,29.50,East,101,8.3,8.3,84,-99.99,,---,-99.99,VWS V14.01,2013-04-29 21:52:00,
2013-04-29 17:57:00,58.1,52.0,29.50,SE,139,8.3,11.4,80,-99.99,,---,-99.99,VWS V14.01,2013-04-29 21:57:00,
2013-04-29 18:02:00,57.9,51.5,29.50,SSE,166,8.7,9.2,79,-99.99,,---,-99.99,VWS V14.01,2013-04-29 22:02:00,
2013-04-29 18:07:00,57.6,51.5,29.50,SE,141,8.7,10.5,80,-99.99,,---,-99.99,VWS V14.01,2013-04-29 22:07:00,
2013-04-29 18:12:00,57.9,52.1,29.50,SE,135,5.8,8.1,81,-99.99,,---,-99.99,VWS V14.01,2013-04-29 22:12:00,
2013-04-29 18:17:00,57.7,52.0,29.50,SE,132,5.8,7.6,81,-99.99,,---,-99.99,VWS V14.01,2013-04-29 22:17:00,
2013-04-29 19:24:00,57.6,48.2,29.50,SE,144,7.6,8.3,71,-99.99,,---,-99.99,VWS V14.01,2013-04-29 23:24:00,
2013-04-29 19:29:00,57.9,50.4,29.50,SSE,154,5.8,5.8,76,-99.99,,---,-99.99,VWS V14.01,2013-04-29 23:29:00,
2013-04-29 19:34:00,57.9,50.0,29.50,SE,136,11.4,11.4,75,-99.99,,---,-99.99,VWS V14.01,2013-04-29 23:34:00,
2013-04-29 19:40:00,57.4,49.2,29.50,SE,141,6.3,8.7,74,-99.99,,---,-99.99,VWS V14.01,2013-04-29 23:40:00,
2013-04-29 19:45:00,57.4,49.9,29.50,SE,130,8.3,8.7,76,-99.99,,---,-99.99,VWS V14.01,2013-04-29 23:45:00,
2013-04-29 19:50:00,57.4,50.6,29.50,SSE,148,5.4,7.6,78,-99.99,,---,-99.99,VWS V14.01,2013-04-29 23:50:00,
2013-04-29 19:55:00,57.2,49.7,29.50,ESE,110,10.1,10.5,76,-99.99,,---,-99.99,VWS V14.01,2013-04-29 23:55:00,
2013-04-29 20:01:00,57.4,50.9,29.50,ESE,123,6.3,8.7,79,-99.99,,---,-99.99,VWS V14.01,2013-04-30 00:01:00,
2013-04-29 20:06:00,57.6,51.8,29.50,SE,132,5.8,8.3,81,-99.99,,---,-99.99,VWS V14.01,2013-04-30 00:06:00,
2013-04-29 20:11:00,57.7,52.3,29.50,ESE,120,8.3,8.3,82,-99.99,,---,-99.99,VWS V14.01,2013-04-30 00:11:00,
2013-04-29 20:16:00,57.9,52.5,29.53,East,92,8.1,8.1,82,-99.99,,---,-99.99,VWS V14.01,2013-04-30 00:16:00,
2013-04-29 20:22:00,57.6,51.1,29.53,SSE,158,8.7,8.7,79,-99.99,,---,-99.99,VWS V14.01,2013-04-30 00:22:00,
2013-04-29 20:27:00,57.9,51.8,29.53,ESE,122,2.7,5.8,80,-99.99,,---,-99.99,VWS V14.01,2013-04-30 00:27:00,
2013-04-29 20:32:00,58.3,52.8,29.53,East,100,2.7,3.6,82,-99.99,,---,-99.99,VWS V14.01,2013-04-30 00:32:00,
2013-04-29 20:37:00,57.9,52.5,29.53,SSE,148,4.9,7.6,82,-99.99,,---,-99.99,VWS V14.01,2013-04-30 00:37:00,
2013-04-29 20:43:00,57.9,52.1,29.53,SE,138,7.2,7.2,81,-99.99,,---,-99.99,VWS V14.01,2013-04-30 00:43:00,
2013-04-29 20:48:00,57.6,51.5,29.53,SE,136,8.1,8.3,80,-99.99,,---,-99.99,VWS V14.01,2013-04-30 00:48:00,
2013-04-29 20:53:00,57.2,50.4,29.53,SE,142,6.3,6.3,78,-99.99,,---,-99.99,VWS V14.01,2013-04-30 00:53:00,
2013-04-29 20:58:00,57.6,51.8,29.53,SE,137,6.3,7.6,81,-99.99,,---,-99.99,VWS V14.01,2013-04-30 00:58:00,
2013-04-29 21:04:00,57.4,51.6,29.53,SSE,160,5.4,7.6,81,-99.99,,---,-99.99,VWS V14.01,2013-04-30 01:04:00,
2013-04-29 21:09:00,57.6,52.1,29.53,SE,133,6.3,6.3,82,-99.99,,---,-99.99,VWS V14.01,2013-04-30 01:09:00,
2013-04-29 21:14:00,57.6,51.8,29.53,East,84,8.1,8.1,81,-99.99,,---,-99.99,VWS V14.01,2013-04-30 01:14:00,
2013-04-29 21:19:00,57.0,51.3,29.53,SE,136,8.1,8.1,81,-99.99,,---,-99.99,VWS V14.01,2013-04-30 01:19:00,
2013-04-29 21:24:00,56.8,51.4,29.53,SE,144,8.7,8.7,82,-99.99,,---,-99.99,VWS V14.01,2013-04-30 01:24:00,
2013-04-29 21:29:00,57.2,51.8,29.53,SE,128,5.4,8.1,82,-99.99,,---,-99.99,VWS V14.01,2013-04-30 01:29:00,
2013-04-29 21:34:00,57.0,51.6,29.53,SE,145,5.8,6.3,82,-99.99,,---,-99.99,VWS V14.01,2013-04-30 01:34:00,
2013-04-29 21:39:00,57.0,51.6,29.53,SE,140,7.6,8.7,82,-99.99,,---,-99.99,VWS V14.01,2013-04-30 01:39:00,
2013-04-29 21:45:00,56.8,51.4,29.53,SE,136,8.1,8.1,82,-99.99,,---,-99.99,VWS V14.01,2013-04-30 01:45:00,
2013-04-29 21:50:00,56.8,51.7,29.53,SE,140,5.8,6.3,83,-99.99,,---,-99.99,VWS V14.01,2013-04-30 01:50:00,
2013-04-29 21:55:00,57.0,52.2,29.53,East,101,4.0,6.3,84,-99.99,,---,-99.99,VWS V14.01,2013-04-30 01:55:00,
2013-04-29 22:00:00,57.4,52.6,29.53,SE,130,4.0,5.4,84,-99.99,,---,-99.99,VWS V14.01,2013-04-30 02:00:00,
2013-04-29 22:05:00,57.2,52.7,29.53,ESE,113,4.0,6.3,85,-99.99,,---,-99.99,VWS V14.01,2013-04-30 02:05:00,
2013-04-29 22:11:00,57.0,52.6,29.53,ESE,105,5.4,5.8,85,-99.99,,---,-99.99,VWS V14.01,2013-04-30 02:11:00,
2013-04-29 22:16:00,57.2,52.7,29.56,ENE,75,4.0,4.0,85,-99.99,,---,-99.99,VWS V14.01,2013-04-30 02:16:00,
2013-04-29 22:21:00,56.8,52.7,29.56,ESE,102,6.3,6.3,86,-99.99,,---,-99.99,VWS V14.01,2013-04-30 02:21:00,
2013-04-29 22:26:00,57.0,52.9,29.56,ESE,104,6.3,6.3,86,-99.99,,---,-99.99,VWS V14.01,2013-04-30 02:26:00,
2013-04-29 22:31:00,56.8,53.0,29.53,East,99,5.4,8.1,87,-99.99,,---,-99.99,VWS V14.01,2013-04-30 02:31:00,
2013-04-29 22:36:00,56.8,53.0,29.53,ESE,106,3.6,5.4,87,-99.99,,---,-99.99,VWS V14.01,2013-04-30 02:36:00,
2013-04-29 22:41:00,56.7,52.8,29.53,ESE,122,5.8,5.8,87,-99.99,,---,-99.99,VWS V14.01,2013-04-30 02:41:00,
2013-04-29 22:46:00,56.7,52.8,29.56,ESE,114,5.4,6.3,87,-99.99,,---,-99.99,VWS V14.01,2013-04-30 02:46:00,
2013-04-29 22:51:00,56.8,53.3,29.56,ESE,108,4.0,6.3,88,-99.99,,---,-99.99,VWS V14.01,2013-04-30 02:51:00,
2013-04-29 22:57:00,56.8,53.3,29.56,ESE,105,6.7,6.7,88,-99.99,,---,-99.99,VWS V14.01,2013-04-30 02:57:00,
2013-04-29 23:02:00,57.2,53.4,29.56,ESE,110,5.8,8.3,87,-99.99,,---,-99.99,VWS V14.01,2013-04-30 03:02:00,
2013-04-29 23:07:00,57.2,53.4,29.56,ESE,110,5.8,5.8,87,-99.99,,---,-99.99,VWS V14.01,2013-04-30 03:07:00,
2013-04-29 23:12:00,57.0,52.6,29.56,ESE,110,5.8,5.8,85,-99.99,,---,-99.99,VWS V14.01,2013-04-30 03:12:00,
2013-04-29 23:17:00,57.2,52.4,29.56,SE,133,6.3,6.3,84,-99.99,,---,-99.99,VWS V14.01,2013-04-30 03:17:00,
2013-04-29 23:22:00,57.2,52.4,29.56,SE,133,5.4,6.3,84,-99.99,,---,-99.99,VWS V14.01,2013-04-30 03:22:00,
2013-04-29 23:27:00,57.0,52.2,29.56,ESE,106,6.3,6.3,84,-99.99,,---,-99.99,VWS V14.01,2013-04-30 03:27:00,
2013-04-29 23:37:00,57.0,52.2,29.56,ESE,106,6.3,6.3,84,-99.99,,---,-99.99,VWS V14.01,2013-04-30 03:37:00,
2013-04-29 23:43:00,57.2,52.1,29.56,ESE,106,6.3,6.3,83,-99.99,,---,-99.99,VWS V14.01,2013-04-30 03:43:00,